Zurück zum Katalog

PAS 1

AktivKommunikationGEO
NORAD 19217·PAYLOAD·🇺🇸 United States

Gestartet Jun 15, 1988 von Guiana Space Centre

Loading…

TLE

AktuellSource: Space-Track

Epoche: Sep 13, 2026, 01:47 UTC

1 19217U 88051C   26256.07464323 -.00000259  00000-0  00000-0 0  9999
2 19217  14.6054   3.9867 0001445 297.4291  59.2030  0.99396906149041

Verfolge PAS 1 in Echtzeit mit AllMySat

Download on the App Store